Location: Hillern
(53.0557°N, 9.8577°E)
Time: 07:33:16
(UTC+00:00)

NOSS 2-1 (D) - Pass Details

Date: 19 May 2025
Orbit: 378 x 1697 km, 63.3° (Epoch: 22 June)

Event Time Altitude Azimuth Distance (km) Brightness Sun altitude
Exits shadow 22:36:18 43° 197° (SSW) 587 3.0 -16.4°
Maximum altitude 22:37:08 65° 134° (SE) 444 2.6 -16.5°
Drops below altitude 10° 22:40:05 10° 52° (NE) 1,404 5.8 -16.5°
Sets 22:42:03 0° 49° (NE) 2,264 6.9 -16.6°
